Weather History for LEMO - January, 2013

Change the Weather History Date:

Thursday, January 3, 2013

  Actual Average Record
Temperature  
Mean Temperature 52 °F -  
Max Temperature 62 °F 59 °F 68 °F (2015)
Min Temperature 41 °F 39 °F 30 °F (2015)
Degree Days  
Heating Degree Days 14    
Growing Degree Days 2 (Base 50)    
Moisture  
Dew Point 41 °F    
Average Humidity 77    
Maximum Humidity 100    
Minimum Humidity 45    
Precipitation  
Precipitation 0.00 in - - ()
Sea Level Pressure  
Sea Level Pressure 30.45 in    
Wind  
Wind Speed 7 mph ()    
Max Wind Speed 13 mph    
Max Gust Speed -    
Visibility 6.2 miles    
Events      
Averages and records for this station are not official NWS values.
T = Trace of Precipitation, MM = Missing Value Source: Averaged Metar Reports

Daily Weather History Graph

Daily Weather History Graph

Search for Another Location

Airport or City:

Trip Planner

Search our weather history database for the weather conditions in past years. The results will help you decide how hot, cold, wet, or windy it might be!

Date:

Astronomy

Jan. 03, 2013 Rise Set
Actual Time 8:36 AM CET 6:17 PM CET
Civil Twilight 8:07 AM CET 6:46 PM CET
Nautical Twilight 7:35 AM CET 7:19 PM CET
Astronomical Twilight 7:03 AM CET 7:50 PM CET
Moon No Moon Rise 11:49 AM CET (1/3)
Length of Visible Light 10h 39m
Length of Day
9h 41m
Waning Gibbous, 68% of the Moon is Illuminated
Jan 3
Waning Gibbous
Jan 5
Last Quarter
Jan 11
New
Jan 19
First Quarter
Jan 27
Full

Hourly Weather History & Observations

Time (CET) Temp. Windchill Dew Point Humidity Pressure Visibility Wind Dir Wind Speed Gust Speed Precip Events Conditions
12:00 AM 41.0 °F 37.1 °F 41.0 °F 100% 30.33 in - NNE 5.8 mph - N/A   Clear
1:00 AM 41.0 °F 38.0 °F 41.0 °F 100% 30.33 in - NE 4.6 mph - N/A   Clear
2:00 AM 41.0 °F 39.0 °F 39.2 °F 93% 30.33 in - ESE 3.5 mph - N/A   Clear
3:00 AM 41.0 °F - 39.2 °F 93% 30.33 in - Variable 2.3 mph - N/A   Clear
4:00 AM 41.0 °F 36.4 °F 39.2 °F 93% 30.36 in - East 6.9 mph - N/A   Clear
5:00 AM 41.0 °F 36.4 °F 39.2 °F 93% 30.36 in - East 6.9 mph - N/A   Clear
6:00 AM 42.8 °F 37.5 °F 39.2 °F 87% 30.36 in - NE 9.2 mph - N/A   Clear
7:00 AM 42.8 °F 37.0 °F 39.2 °F 87% 30.36 in - ENE 10.4 mph - N/A   Clear
8:00 AM 44.6 °F 38.8 °F 37.4 °F 76% 30.39 in - ENE 11.5 mph - N/A   Clear
9:00 AM 42.8 °F 37.0 °F 39.2 °F 87% 30.42 in - ENE 10.4 mph - N/A   Clear
10:00 AM 44.6 °F 39.2 °F 39.2 °F 81% 30.45 in - ENE 10.4 mph - N/A   Clear
11:00 AM 50.0 °F - 41.0 °F 71% 30.48 in - ENE 11.5 mph - N/A   Clear
12:00 PM 53.6 °F - 42.8 °F 67% 30.48 in - NE 10.4 mph - N/A   Clear
1:00 PM 57.2 °F - 46.4 °F 67% 30.48 in 6.2 mi NE 10.4 mph - N/A   Partly Cloudy
2:00 PM 59.0 °F - 48.2 °F 67% 30.48 in 6.2 mi NE 10.4 mph - N/A   Partly Cloudy
3:00 PM 62.6 °F - 42.8 °F 48% 30.48 in 6.2 mi ESE 9.2 mph - N/A   Partly Cloudy
4:00 PM 62.6 °F - 41.0 °F 45% 30.48 in 6.2 mi SE 12.7 mph - N/A   Partly Cloudy
5:00 PM 60.8 °F - 42.8 °F 52% 30.51 in 6.2 mi ESE 10.4 mph - N/A   Partly Cloudy
6:00 PM 57.2 °F - 41.0 °F 55% 30.51 in 6.2 mi East 8.1 mph - N/A   Partly Cloudy
7:00 PM 53.6 °F - 41.0 °F 62% 30.54 in - ESE 8.1 mph - N/A   Clear
8:00 PM 50.0 °F - 41.0 °F 71% 30.57 in - SE 10.4 mph - N/A   Clear
9:00 PM 48.2 °F - 41.0 °F 76% 30.57 in - East 6.9 mph - N/A   Clear
10:00 PM 46.4 °F 42.9 °F 41.0 °F 81% 30.57 in - ESE 6.9 mph - N/A   Clear
11:00 PM 44.6 °F 41.4 °F 41.0 °F 87% 30.60 in - SE 5.8 mph - N/A   Clear